Location: Gro�sch�nbrunn
(49.5760°N, 11.8868°E)
Time: 05:30:33
(UTC+00:00)

USA 238 DEB - Pass Details

Date: 18 September 2020
Orbit: 1006 x 1206 km, 63.4° (Epoch: 15 October)

Event Time Altitude Azimuth Distance (km) Brightness Sun altitude
Rises 17:41:08 0° 313° (NW) 3,898 7.7 -4.5°
Reaches altitude 10° 17:43:54 10° 320° (NW) 2,969 6.8 -4.9°
Maximum altitude 17:50:40 45° 32° (NNE) 1,518 4.4 -6.0°
Drops below altitude 10° 17:57:44 10° 104° (ESE) 3,093 5.4 -7.2°
Enters shadow 17:58:12 - 105° (ESE) 3,249 5.5 -7.2°
